Theta_e
291 292 292 293 292 292 292 292 293 292 294 295 292 295 296 296 291 290 297 300 300 303 314 314 314 318 319 319 319 322 325 326 328 328 327 328 330 332 335 338 343 343 340 340 341 343 344 344 343 343 346 349 352 353 354 354 356 358 360 359 359 359 359 358 357 357 357 357 357 356 355 355 355 354 354 354 354 352 353 352 351 353 354 355 355 355 357
291 291 292 293 292 292 292 292 293 293 293 294 294 296 297 296 295 297 298 300 301 307 315 316 318 320 320 320 324 326 325 324 325 325 325 326 327 328 330 333 337 340 342 343 344 345 345 345 346 345 348 349 352 353 353 355 355 358 360 359 359 359 358 358 358 358 357 357 357 356 356 355 355 354 354 354 354 352 351 351 350 352 353 355 355 355 356
288 291 292 293 292 292 290 292 293 293 294 294 295 296 296 299 297 300 301 301 304 317 318 319 322 320 321 323 322 322 322 322 323 322 322 323 325 326 328 330 332 333 336 340 343 343 344 344 344 343 342 343 346 351 354 355 355 357 360 359 359 359 358 359 359 358 357 357 356 355 356 355 355 355 353 353 353 352 351 351 351 351 353 353 354 355 356
285 290 291 291 292 292 291 290 292 292 292 291 294 294 296 295 294 297 298 298 304 314 319 320 319 321 319 317 317 318 319 320 321 320 320 321 323 324 326 328 330 332 334 334 337 342 345 341 342 344 346 348 347 345 345 352 356 357 359 359 359 359 359 359 359 358 358 357 356 355 356 355 355 355 354 353 352 353 352 352 352 351 351 353 354 355 356
284 289 291 290 290 289 286 288 291 293 294 295 296 296 298 298 298 295 294 300 313 317 319 316 316 319 320 315 314 314 316 317 318 318 319 320 321 323 325 326 330 333 333 334 334 337 341 345 342 343 344 348 347 347 346 345 352 356 358 360 359 359 360 359 359 359 358 357 356 356 356 356 356 356 355 353 352 353 353 354 354 352 350 352 353 354 355
284 288 289 290 286 279 281 294 297 296 294 295 294 294 296 298 299 298 306 307 312 314 314 314 315 314 313 316 313 315 314 314 315 317 318 319 321 322 324 325 327 330 332 334 335 337 339 341 346 346 344 344 346 349 351 350 349 354 356 359 359 359 359 360 359 359 359 358 357 356 357 357 356 355 355 354 353 354 355 355 354 353 352 351 353 354 355
284 287 288 284 279 281 293 297 298 298 300 304 303 303 301 300 303 308 310 313 311 312 315 317 317 316 314 314 314 314 315 315 315 316 317 318 320 321 322 323 326 327 329 331 332 334 337 340 344 347 352 348 348 350 352 349 350 352 354 356 359 359 359 360 360 360 359 359 357 357 357 357 357 355 355 355 354 353 355 355 354 353 352 351 353 355 355
288 285 283 276 279 291 295 296 297 304 303 304 304 302 306 310 311 310 309 311 314 314 314 315 317 320 315 314 314 314 315 316 316 316 316 318 319 319 321 323 324 326 328 329 331 333 338 339 341 345 348 352 352 347 352 353 353 354 354 354 357 358 359 360 360 360 360 359 358 358 357 357 357 356 355 354 354 353 353 355 355 355 355 353 352 354 355
281 284 283 283 290 289 291 292 297 299 297 299 300 294 300 309 311 310 310 311 312 315 313 314 315 316 317 312 311 315 315 315 316 316 317 318 319 320 321 323 324 326 327 328 331 334 336 338 341 344 348 352 353 353 352 344 352 353 354 354 356 358 359 360 360 361 360 359 359 358 358 357 356 356 355 354 355 355 352 353 354 354 354 354 353 353 354
288 283 281 282 281 279 286 295 305 306 304 304 307 300 296 308 309 310 311 311 310 311 312 313 315 318 314 306 307 312 314 314 314 316 317 318 319 320 321 322 323 324 325 328 332 335 337 339 343 346 350 353 353 353 352 351 349 352 353 353 356 358 359 361 361 361 361 360 359 359 358 357 357 357 357 356 355 356 353 351 353 355 355 355 354 354 353
287 284 281 280 278 283 292 295 300 304 304 304 304 297 292 305 308 310 310 308 309 310 310 312 313 310 306 304 307 311 313 313 314 315 315 317 318 319 319 320 320 321 324 328 332 334 334 335 338 341 344 348 351 352 353 352 351 347 351 352 354 358 359 361 362 362 362 361 361 360 359 358 358 357 357 356 355 356 355 353 352 355 356 355 355 355 354
286 285 282 280 285 283 294 298 300 302 304 304 300 286 288 304 308 310 309 307 307 308 310 311 309 305 302 304 307 312 314 314 314 314 314 315 315 316 317 319 320 322 326 327 327 328 329 332 337 339 342 344 348 351 353 353 352 350 348 352 354 357 361 361 362 363 363 362 362 361 360 359 359 359 359 357 356 355 355 354 352 353 356 356 354 355 355
286 286 284 286 287 295 300 300 300 304 305 300 287 283 295 305 308 309 309 309 308 308 308 308 305 308 309 311 314 315 314 313 314 315 315 316 315 314 316 317 322 321 323 324 325 327 329 332 335 338 340 342 344 348 352 353 352 352 352 352 354 356 361 361 362 363 363 363 362 362 362 361 360 360 359 358 356 355 355 355 353 352 354 355 355 355 356
284 285 283 283 288 297 301 301 303 305 301 286 284 300 306 307 307 309 310 309 310 308 307 308 308 310 312 314 314 313 313 313 314 314 315 313 313 315 317 319 319 319 320 321 323 326 328 330 333 336 338 339 342 346 350 352 354 354 353 352 353 355 360 361 362 363 363 364 364 364 364 363 361 359 360 359 358 356 355 354 352 352 353 355 355 355 356
287 286 283 281 278 294 301 300 298 303 293 294 302 304 307 308 307 307 309 310 310 310 308 309 309 310 311 311 311 312 314 314 313 314 314 311 312 312 313 315 317 319 318 320 322 324 327 329 331 333 335 336 339 344 348 353 357 357 354 352 354 356 360 361 361 362 364 364 364 365 365 364 362 359 359 359 358 357 355 353 352 351 352 355 355 355 356
283 283 281 282 294 295 301 299 291 297 300 304 306 308 305 307 308 308 308 309 310 312 310 310 310 311 310 311 310 311 313 313 313 314 315 314 314 314 315 315 317 319 318 321 322 324 326 328 329 332 334 335 338 342 347 355 358 359 357 355 355 356 358 360 361 362 363 365 366 365 365 364 363 361 360 359 358 357 355 353 351 350 351 354 355 355 355
289 287 290 296 298 301 302 302 300 301 303 308 310 309 309 307 308 310 308 309 310 310 311 310 310 309 311 310 310 309 311 313 313 313 314 314 314 315 314 314 317 319 319 320 322 323 325 326 328 332 336 338 340 343 350 357 358 359 357 356 355 356 358 359 360 362 363 364 365 365 365 365 363 362 361 361 358 357 355 354 352 350 350 352 354 354 354
297 298 298 299 300 299 298 300 302 301 302 305 308 310 307 308 308 309 308 309 309 310 311 309 309 309 309 309 309 310 311 311 312 315 315 315 316 317 315 314 316 318 320 321 321 322 323 326 329 333 336 339 344 351 358 360 361 360 359 356 355 356 358 359 360 361 362 364 365 365 365 365 364 364 362 362 360 358 356 354 352 351 350 350 351 352 353
290 286 298 297 296 296 297 297 300 303 304 303 304 306 306 306 307 308 309 309 309 309 309 308 308 308 309 308 309 311 311 310 311 313 314 315 316 316 315 314 317 318 320 320 321 322 323 325 329 332 333 336 340 349 357 360 360 361 360 357 356 356 357 359 360 361 361 362 363 364 364 365 365 365 364 363 361 358 358 356 353 351 350 349 349 349 350
288 289 294 296 296 296 299 299 298 297 299 301 302 304 306 307 308 308 308 309 309 309 308 308 308 308 309 308 308 309 309 310 311 312 314 315 316 317 316 315 318 319 320 319 320 322 323 325 329 332 333 334 339 347 358 364 363 361 359 357 357 356 358 359 359 360 361 358 360 363 363 363 363 364 364 364 362 360 359 358 355 353 351 350 349 349 348
291 294 295 295 295 296 297 298 298 299 299 299 300 302 304 306 307 307 308 309 309 309 308 309 309 308 308 309 309 309 310 310 311 312 313 314 316 316 314 314 318 319 319 319 320 322 324 327 329 329 330 333 338 344 351 359 364 361 358 357 357 357 358 359 359 358 360 360 361 362 362 362 363 364 364 363 363 363 364 362 359 357 354 353 352 352 351
286 287 290 293 288 288 293 296 298 299 300 301 301 302 303 304 306 307 307 307 309 309 309 309 309 308 308 310 309 309 310 311 311 311 311 313 316 315 315 315 318 319 319 319 320 322 325 326 328 328 329 331 335 339 343 347 357 362 359 358 357 357 359 359 359 358 358 360 361 361 362 361 361 362 350 338 352 364 362 348 341 335 334 353 355 355 353
286 292 294 295 295 295 296 297 299 300 302 302 302 303 303 305 306 308 307 307 307 307 308 310 310 309 309 309 310 309 310 311 311 311 311 313 315 315 315 315 318 319 317 319 320 322 324 325 326 327 328 329 331 334 338 341 349 359 363 359 357 358 358 358 356 357 358 358 359 360 361 361 360 359 351 339 308 306 318 340 332 322 319 324 328 334 351
294 296 297 299 297 294 297 300 301 302 304 305 304 305 306 306 306 307 308 308 307 307 308 309 310 310 310 310 310 309 311 311 311 310 311 315 315 316 316 317 319 318 316 317 318 321 324 324 324 325 326 328 329 331 333 336 342 353 363 362 358 358 359 358 355 354 358 358 358 358 359 360 360 358 354 348 341 314 301 308 321 318 315 317 319 320 326
293 299 300 301 300 301 302 303 304 305 306 306 304 305 306 306 307 308 307 307 309 309 308 308 310 312 311 311 311 310 310 311 313 314 318 318 318 316 316 319 319 316 315 316 319 323 324 322 323 324 324 326 328 328 330 331 338 351 357 361 361 358 355 352 353 356 356 357 356 358 357 358 359 358 355 352 351 346 330 304 301 310 314 317 314 314 317
301 301 302 303 303 303 303 304 304 304 304 305 305 305 308 311 310 310 309 309 309 310 310 309 309 310 312 311 310 311 311 311 317 317 315 314 315 315 317 319 318 317 315 317 321 323 321 322 322 323 323 325 326 327 329 331 340 347 346 350 344 338 339 341 339 339 339 341 345 350 354 358 359 359 356 355 354 346 338 338 337 322 306 302 305 316 315
303 304 302 300 299 299 302 300 299 304 305 307 306 307 307 308 312 312 311 311 311 311 311 310 310 311 312 313 314 313 311 312 314 315 315 315 315 317 320 320 319 318 317 319 322 322 322 322 321 321 322 324 326 327 328 332 340 345 344 345 346 349 350 348 342 342 343 343 342 341 339 338 343 352 356 356 353 346 345 344 344 343 340 331 308 298 317
303 303 303 296 295 297 300 303 305 305 306 306 306 307 308 307 309 309 309 309 309 310 311 311 310 310 310 312 312 312 313 312 313 314 315 315 316 319 319 320 320 319 319 322 322 320 320 319 319 320 320 323 324 326 329 332 338 344 345 346 346 344 345 348 346 345 345 343 343 343 342 340 341 340 344 348 350 348 344 347 347 344 339 333 323 309 301
302 303 304 304 303 303 304 305 305 304 304 306 307 307 307 305 305 307 308 308 309 310 310 311 312 313 313 314 314 312 312 312 314 315 315 316 319 319 319 321 321 322 321 322 320 318 317 317 318 318 319 321 323 326 330 332 339 343 345 344 345 345 344 344 345 345 346 345 344 343 341 341 342 343 343 344 347 349 350 349 348 346 340 328 327 329 322
302 302 303 303 304 304 303 301 302 303 303 304 305 305 306 305 303 304 306 308 310 310 309 310 311 311 312 312 315 314 314 314 314 315 316 318 319 319 320 320 321 320 320 319 317 317 316 316 317 317 319 321 323 326 330 332 338 341 341 340 338 338 341 343 344 343 343 343 343 337 340 343 344 344 343 344 345 346 347 349 348 344 336 335 335 340 337
301 303 303 303 302 303 302 301 302 302 302 303 304 304 304 304 303 303 305 306 308 309 310 311 311 310 310 312 313 315 315 315 315 316 317 318 319 318 319 319 317 316 316 317 317 316 315 316 316 317 319 321 324 326 328 332 334 334 336 338 338 329 327 333 337 344 344 345 344 344 343 342 343 342 341 341 341 341 344 347 348 344 338 339 341 342 338
299 300 301 301 301 301 301 301 301 301 301 302 302 302 302 302 301 302 304 305 306 308 310 311 311 310 311 311 313 314 314 315 316 316 317 317 317 317 317 318 318 318 317 317 316 316 315 315 315 317 320 322 323 325 326 330 330 328 329 333 333 336 332 332 336 336 339 341 342 342 341 340 341 341 339 340 340 340 342 346 349 344 341 341 342 341 333
297 296 297 298 299 299 299 300 300 300 301 301 301 303 303 304 304 304 305 305 306 307 308 308 310 311 312 313 313 313 314 315 316 316 316 315 315 316 316 317 317 316 316 316 315 315 315 314 315 318 320 321 322 324 324 328 329 326 325 327 328 329 334 328 329 335 339 337 336 337 338 339 339 339 339 339 339 340 342 343 345 344 343 341 337 334 331
299 297 298 300 299 298 298 299 301 301 302 303 303 303 303 303 303 304 305 305 305 305 306 308 311 313 313 313 314 314 314 312 312 313 314 314 314 314 314 316 315 315 315 316 314 313 314 315 316 318 320 320 321 322 323 325 327 325 324 324 325 324 325 327 329 333 334 335 335 336 337 337 338 338 337 338 340 341 339 339 337 334 332 330 328 323 313
303 302 302 302 302 302 303 302 302 301 301 301 301 302 303 303 303 303 305 304 303 305 307 308 310 311 312 311 311 310 310 310 311 312 313 313 313 312 313 313 312 312 312 312 312 312 313 314 316 319 320 319 320 320 321 323 325 324 322 322 323 322 322 323 324 327 330 330 331 332 332 333 334 336 336 335 335 335 334 332 332 331 330 329 329 329 326
304 302 302 302 303 303 303 302 303 303 302 302 302 302 303 303 304 303 302 303 305 306 306 307 308 309 309 308 307 307 307 308 309 310 312 312 312 312 311 310 310 309 309 309 310 311 312 313 318 319 319 318 318 319 320 321 322 322 322 321 320 320 320 320 320 322 324 327 327 327 327 329 331 331 332 332 332 332 331 330 330 330 330 329 329 328 327
304 302 302 302 303 303 303 303 303 303 302 302 303 303 303 303 303 304 304 303 304 305 305 306 306 306 307 308 308 308 308 307 308 308 310 311 311 310 309 308 308 308 308 306 308 311 311 313 317 318 317 316 317 317 320 321 320 319 319 317 317 317 317 317 317 317 318 320 323 324 325 325 325 326 327 328 328 328 328 329 328 328 328 328 327 326 323
303 303 303 303 303 303 304 304 304 303 303 303 304 304 304 303 303 303 303 303 303 304 305 305 305 305 306 306 306 306 307 307 307 307 308 308 309 308 307 307 307 307 306 306 309 310 311 314 315 315 314 313 314 316 318 318 319 316 315 315 314 315 315 315 315 316 316 316 317 317 318 319 320 322 324 326 326 326 326 326 325 324 323 322 321 320 319
303 304 303 303 304 304 304 304 304 304 303 302 302 303 304 305 304 303 303 303 303 305 305 305 305 304 304 303 303 305 306 306 307 306 306 306 308 307 305 306 306 307 308 310 309 309 311 312 312 311 312 311 313 313 316 316 317 313 312 312 312 312 313 313 313 313 314 315 315 314 314 315 315 316 317 319 320 320 320 321 320 320 319 319 318 317 317
302 302 302 303 302 303 303 303 303 302 303 303 303 302 303 304 303 303 303 303 303 305 304 304 304 303 303 303 303 303 304 306 306 305 305 305 306 306 305 305 306 307 309 310 308 308 310 310 310 309 310 311 311 312 313 313 313 311 310 310 310 310 310 310 310 310 310 311 312 314 312 312 312 313 313 314 315 316 317 317 317 317 317 316 316 315 315
302 302 303 303 302 303 303 303 302 303 302 303 303 303 304 303 303 303 302 302 303 304 303 304 303 303 303 303 303 303 304 305 306 305 305 304 303 303 302 302 305 307 307 307 307 307 308 308 308 308 308 309 310 311 309 310 308 307 308 308 308 308 307 307 308 307 308 307 308 308 309 309 309 309 310 310 311 311 311 312 312 312 313 314 314 314 313
303 303 302 302 302 303 302 303 303 302 302 302 303 304 304 305 304 302 303 303 303 303 302 303 305 303 303 304 304 303 303 303 304 305 304 303 302 302 301 302 306 306 308 308 307 306 305 305 307 308 307 308 309 309 309 307 305 305 305 305 305 306 306 306 305 305 306 306 306 305 306 306 306 306 306 307 307 307 307 307 307 307 307 308 309 309 309
304 302 302 302 302 303 302 302 303 302 301 302 303 303 304 304 304 303 303 303 303 302 301 302 303 304 304 303 302 301 301 302 303 303 303 303 304 304 303 303 305 307 309 307 304 303 303 304 304 305 308 307 307 307 306 304 303 303 303 303 304 303 304 303 303 303 303 303 303 303 303 303 303 304 304 303 304 304 304 304 304 304 305 305 305 306 306
304 303 302 302 302 302 302 303 303 302 301 301 302 303 304 304 304 303 303 303 302 302 301 301 301 302 302 302 302 301 301 301 301 302 302 301 302 304 305 304 304 306 306 306 305 304 303 303 303 304 307 306 306 306 305 303 302 302 302 302 302 302 302 301 301 301 301 301 301 301 301 302 302 302 302 302 302 302 303 303 303 303 303 303 303 303 303
303 303 303 303 303 303 302 301 302 301 302 303 304 303 303 303 303 303 303 302 303 302 302 302 301 301 301 302 302 302 301 302 302 302 300 300 299 300 304 306 304 304 304 305 303 303 303 303 305 306 305 305 304 304 301 302 302 301 301 301 300 301 301 301 301 300 300 300 300 300 301 301 300 301 300 301 302 302 301 301 301 302 302 301 301 302 302
302 303 304 304 303 304 302 303 305 304 303 303 303 303 303 303 303 303 303 303 303 302 302 302 302 302 302 302 302 303 302 301 301 302 302 302 301 302 305 304 304 304 304 304 302 301 302 305 304 303 303 304 303 301 300 300 300 300 300 299 300 300 299 299 300 300 300 300 299 299 299 299 299 299 299 299 300 300 300 301 301 300 301 301 301 301 301
302 302 302 302 303 303 303 303 304 304 302 302 300 300 302 302 303 302 302 303 303 303 302 302 302 303 303 302 301 301 300 300 300 301 301 301 303 303 304 304 304 304 303 301 301 301 302 302 303 303 303 304 303 300 299 299 299 298 299 299 299 299 299 298 298 298 298 298 299 300 300 299 298 298 299 298 298 298 299 299 298 298 299 300 300 301 301
302 302 301 302 303 303 304 304 302 300 300 300 301 301 301 302 301 301 302 302 303 303 302 302 302 302 302 302 302 302 302 300 297 297 300 300 301 301 301 301 302 304 303 303 302 303 303 302 302 302 302 302 300 299 299 299 299 298 298 298 298 298 299 298 298 298 298 299 298 297 297 297 297 297 298 297 297 297 298 298 298 298 298 298 298 298 298
303 303 302 303 303 302 302 303 301 301 301 302 301 301 302 302 302 301 301 301 301 301 301 301 301 301 302 303 303 302 303 303 300 298 300 300 299 299 300 302 303 303 301 299 299 299 302 301 301 301 302 301 298 298 298 298 299 300 299 298 298 298 298 298 298 299 298 298 298 298 298 297 296 296 296 297 297 297 298 297 297 297 297 297 297 298 298
302 301 301 301 300 300 301 301 300 300 301 302 301 302 302 301 300 300 302 301 301 302 300 300 300 301 301 300 301 302 302 302 302 301 301 300 300 299 299 300 300 301 301 298 299 298 302 303 301 301 299 298 298 298 298 298 298 299 298 299 299 298 298 299 299 299 299 299 298 299 298 298 298 299 299 297 297 297 297 297 297 297 298 298 298 297 297
303 302 301 302 303 303 302 303 302 302 302 302 302 303 303 301 300 301 302 302 301 301 300 300 300 300 300 300 301 301 302 302 302 303 301 301 300 301 300 299 299 299 299 298 298 297 297 298 298 299 297 297 297 298 298 298 298 298 299 298 298 298 298 298 298 297 297 298 297 297 298 298 298 298 298 298 298 297 297 297 296 296 296 296 296 296 297
303 302 302 302 305 302 302 303 303 305 304 303 301 302 300 301 301 301 301 302 301 300 299 300 298 300 301 300 301 300 301 301 303 303 302 302 300 299 300 300 298 298 297 297 297 297 297 298 299 300 299 297 297 297 299 299 297 297 298 298 298 298 298 298 298 297 297 297 297 296 297 297 297 297 297 298 298 298 298 298 297 297 298 297 297 297 296
Wind_Speed
12 12 14 15 15 13 16 18 16 15 15 14 14 7 7 6 4 8 12 13 10 10 10 14 12 11 13 13 14 13 13 16 17 16 19 19 20 22 22 23 19 9 1 6 13 15 16 17 16 15 14 14 15 14 14 15 15 16 16 17 17 16 16 16 16 16 15 14 14 14 15 15 14 15 15 14 13 13 13 14 12 13 14 14 14 13 12
12 13 14 14 15 15 15 17 15 13 15 15 16 14 7 9 9 11 11 12 13 8 6 5 7 10 11 12 13 16 19 19 16 17 18 18 17 18 19 19 17 16 15 14 12 10 9 6 2 4 6 10 14 14 13 15 15 14 15 16 16 16 16 16 14 14 14 14 14 14 15 15 15 15 15 14 14 14 14 14 13 12 13 14 14 14 13
9 12 14 14 15 14 15 14 15 13 13 16 16 14 9 11 12 6 9 9 5 2 1 1 6 12 13 17 18 17 15 17 17 17 17 17 16 17 17 16 18 17 16 15 12 9 8 8 6 6 7 10 13 8 6 12 13 13 14 14 15 16 15 14 14 13 14 14 14 15 15 15 14 14 15 14 13 14 14 14 14 12 11 14 14 13 14
8 10 11 14 14 15 16 15 15 11 10 14 11 8 4 9 10 11 12 9 4 9 5 10 13 15 16 16 15 14 14 16 17 17 17 16 16 17 16 16 16 17 18 18 16 14 6 6 7 4 3 5 7 3 11 14 11 12 12 14 16 15 14 14 15 15 14 15 15 15 15 15 15 14 14 14 13 14 14 15 14 13 11 13 14 14 13
8 10 12 14 14 13 12 10 10 11 10 12 11 11 10 12 12 11 6 2 3 1 4 12 13 13 13 15 14 13 14 14 16 16 17 17 16 15 15 16 15 15 15 15 16 14 13 7 5 7 8 1 7 9 9 11 15 11 12 14 15 15 15 15 16 15 15 15 16 16 16 15 14 14 14 14 14 13 16 15 14 14 13 11 13 13 13
7 11 12 11 8 8 8 8 13 10 12 11 14 15 11 10 12 4 5 7 7 9 8 10 11 13 13 10 11 12 12 12 14 15 16 16 16 16 14 14 13 9 7 8 9 12 10 10 6 4 11 8 6 7 8 7 15 16 12 13 15 15 15 16 16 15 15 16 16 16 15 15 14 15 15 15 15 13 13 13 14 14 14 13 12 13 14
5 7 8 7 8 8 6 12 10 11 11 12 12 15 11 11 5 8 7 5 8 7 9 7 8 10 12 15 16 15 14 14 13 14 15 15 16 16 16 16 15 14 11 8 11 13 14 14 11 8 3 9 8 10 11 13 19 17 12 11 13 14 15 16 16 16 17 17 17 16 15 15 15 16 16 14 14 13 12 14 15 15 15 14 12 13 14
3 5 3 5 7 5 11 13 13 9 7 9 14 10 10 14 12 9 9 11 4 9 9 9 4 5 11 12 12 13 14 14 14 14 14 16 16 16 15 14 14 14 16 15 14 12 12 14 13 12 11 11 8 4 8 14 17 14 11 11 12 15 15 16 17 17 17 17 16 16 16 16 16 16 16 15 14 13 12 12 12 13 13 13 12 12 13
3 2 5 9 10 13 11 10 5 4 6 7 5 3 7 9 10 14 9 8 5 5 10 9 9 7 4 11 9 14 15 15 14 13 13 15 14 14 14 15 15 13 13 15 14 13 12 10 11 13 12 12 11 9 5 7 9 10 10 11 11 14 16 16 17 17 17 17 17 16 16 16 17 17 16 16 14 12 12 12 13 14 14 14 13 13 12
4 3 4 4 7 9 6 6 4 4 7 5 3 3 3 8 13 14 10 7 10 9 10 10 12 8 4 9 9 13 16 15 14 13 13 13 14 14 15 15 14 16 15 14 14 14 14 13 12 11 12 12 13 12 9 9 8 8 10 11 10 12 15 16 17 17 17 17 17 16 16 17 17 16 16 14 15 13 13 13 14 14 14 13 13 13 14
0 2 4 4 5 7 2 7 11 13 9 11 11 5 4 3 10 13 12 12 10 10 10 9 9 6 4 5 7 10 13 13 13 12 12 13 13 14 14 15 16 16 15 14 15 14 15 16 16 16 16 16 15 13 11 10 9 9 10 11 12 12 13 14 15 15 16 16 17 17 17 17 16 16 16 15 14 13 13 13 12 12 12 13 13 12 13
2 2 2 4 3 3 10 14 13 16 13 8 6 6 3 8 13 12 12 11 12 11 11 9 10 9 5 6 6 8 9 9 10 10 12 12 14 14 14 13 13 14 13 15 15 15 15 15 16 17 16 15 16 14 13 11 11 10 10 11 12 10 10 12 13 15 15 16 16 17 17 16 14 14 12 12 14 14 13 12 11 11 12 13 14 13 13
4 4 4 5 6 3 4 9 13 12 14 4 3 4 5 10 12 11 9 10 8 8 9 9 6 5 3 3 3 6 9 9 9 9 9 10 11 13 14 14 14 12 13 12 13 14 12 13 15 15 15 15 15 15 15 13 13 13 12 9 10 10 11 12 13 15 14 16 17 16 15 15 14 13 12 13 13 14 14 13 12 10 13 13 14 13 12
5 4 7 8 4 2 4 8 8 6 6 3 2 3 4 8 11 12 12 10 7 6 6 5 5 6 5 7 8 9 11 10 7 7 9 11 12 11 10 13 13 14 13 13 14 13 13 15 15 14 14 15 15 14 14 15 15 14 13 9 8 10 12 13 14 14 15 14 15 14 14 14 14 14 13 13 12 14 13 13 14 13 10 12 13 12 12
4 4 6 5 6 0 9 10 5 5 4 4 4 6 7 4 6 9 10 10 6 6 5 5 5 6 7 5 6 4 6 8 8 8 8 10 12 14 16 16 15 15 14 14 14 15 14 14 14 14 15 16 16 15 15 18 16 14 12 9 9 11 12 14 14 15 14 15 14 12 13 14 14 14 12 13 13 13 14 14 14 14 12 11 12 12 12
1 1 4 2 1 5 10 8 3 5 5 4 4 2 6 5 3 4 5 6 5 3 3 5 7 9 8 3 5 4 4 5 6 6 6 6 9 12 12 13 16 17 14 14 15 15 14 14 14 14 13 15 16 16 19 18 16 15 13 11 9 12 13 14 15 14 15 15 15 14 14 14 14 14 14 14 13 13 14 14 13 14 12 10 11 12 13
1 3 4 6 8 7 5 8 9 8 9 5 2 3 5 8 7 3 4 6 4 4 2 2 4 6 9 7 2 3 3 4 5 8 7 7 8 9 11 14 14 14 15 16 17 18 16 17 16 14 13 14 18 19 19 16 16 15 14 12 10 13 14 14 15 15 14 14 15 15 14 15 14 15 15 14 14 13 13 14 14 14 13 12 12 12 12
4 9 12 12 8 8 11 10 8 11 11 8 6 4 6 7 9 8 7 6 5 4 2 3 2 4 5 8 8 3 4 3 4 5 7 7 6 7 10 12 15 15 15 16 17 20 20 19 17 14 15 16 19 19 17 15 15 15 13 12 12 14 14 14 15 15 15 15 16 16 15 14 15 14 14 14 14 13 13 13 14 14 13 13 12 12 13
5 4 4 10 12 12 13 13 12 8 9 12 11 7 6 8 10 12 12 10 7 7 5 4 5 5 3 4 6 3 3 4 4 4 6 8 8 8 9 10 12 12 12 15 18 20 21 19 17 17 17 17 18 19 18 17 17 15 12 12 12 13 15 15 15 15 16 14 14 15 15 14 13 13 13 13 13 13 14 14 15 14 14 14 13 13 12
4 6 11 10 12 13 9 7 9 12 14 15 14 14 12 8 9 10 11 13 12 8 7 5 5 6 4 4 1 4 3 3 4 4 5 8 10 9 8 10 11 10 11 14 16 18 18 18 16 17 17 18 19 21 19 17 17 13 11 11 13 14 16 14 14 15 16 19 18 14 15 15 13 13 13 14 14 15 16 17 16 15 15 15 15 15 13
7 10 6 12 18 11 5 9 12 12 13 14 17 17 17 14 10 10 11 11 12 10 7 6 8 8 7 5 3 4 5 3 3 4 5 7 6 7 11 13 13 12 12 14 15 17 17 15 17 18 19 19 19 20 20 19 18 12 11 11 13 14 14 14 14 15 15 15 14 14 14 14 13 13 13 13 14 14 15 13 13 15 16 15 16 15 14
4 3 7 11 9 10 13 16 14 16 16 17 17 16 17 15 10 9 10 12 12 12 9 6 6 8 7 6 5 6 7 5 2 3 6 7 5 6 8 9 11 13 14 14 15 14 14 17 18 17 18 18 18 18 18 19 18 14 11 11 13 13 13 14 14 14 13 13 14 13 13 13 12 10 7 8 13 14 13 15 19 18 14 14 15 13 14
5 7 10 9 10 13 12 13 16 16 15 15 16 15 15 15 11 9 10 11 12 12 10 7 6 5 6 7 5 6 6 6 4 3 5 6 4 8 9 11 12 13 15 15 17 16 16 16 17 17 17 17 18 19 20 19 18 17 10 11 11 12 13 14 15 14 13 12 13 12 12 12 11 11 7 1 11 9 6 9 16 17 18 17 15 15 14
10 10 8 9 9 11 13 15 16 16 12 12 14 14 13 13 11 9 10 10 10 9 9 9 6 6 6 7 5 5 5 6 5 5 5 2 2 4 7 9 10 13 16 17 17 17 15 16 17 17 18 17 18 19 20 20 19 17 14 10 11 12 13 13 14 12 11 11 11 11 10 10 11 10 9 7 1 7 11 8 11 19 18 17 16 16 17
6 5 7 8 8 10 11 11 13 12 10 12 11 12 14 13 12 11 12 11 9 10 9 9 7 5 4 4 3 4 4 6 7 5 4 3 4 4 6 8 9 11 13 13 13 13 14 17 17 17 16 17 17 19 19 19 19 16 13 11 11 6 3 4 3 1 6 9 11 11 10 10 10 10 10 11 12 9 3 11 10 2 5 8 12 17 19
8 7 7 7 7 7 9 10 9 10 13 13 13 13 16 15 13 11 11 11 10 8 8 7 6 6 6 6 5 4 4 6 6 8 4 4 4 4 6 6 7 8 11 12 12 13 15 17 16 15 15 15 17 18 18 18 17 13 8 8 6 6 2 4 5 2 5 11 12 8 5 6 9 10 11 12 12 8 7 4 2 5 8 8 5 1 4
6 5 6 6 4 6 7 10 10 13 13 13 12 13 15 15 13 10 8 8 9 9 9 7 5 5 7 5 4 4 4 5 6 6 6 4 4 5 4 4 6 9 11 12 10 13 17 16 15 15 15 16 17 19 18 18 16 11 7 4 2 6 3 3 5 7 9 11 11 9 4 4 11 9 8 10 9 10 11 11 11 11 8 2 7 9 3
5 3 2 3 7 9 10 11 11 11 11 11 13 12 14 15 11 5 5 6 7 9 9 6 6 6 7 5 4 4 4 5 5 4 5 4 4 3 3 6 7 8 9 10 10 11 13 13 14 15 16 17 19 20 19 16 15 10 7 3 1 5 7 3 2 4 3 4 8 9 10 10 7 1 10 7 6 8 9 9 9 8 4 3 2 4 9
6 3 3 4 5 7 8 8 9 10 11 10 11 10 12 16 15 11 8 5 4 6 8 8 6 7 4 4 3 3 3 4 4 4 5 5 3 3 4 6 8 9 8 8 10 10 11 14 15 15 17 17 18 19 18 16 12 9 7 1 2 1 4 7 6 5 3 3 3 3 4 5 5 7 6 6 9 7 7 8 9 8 7 5 5 4 5
2 4 2 3 4 6 8 9 9 10 11 11 11 10 11 12 12 12 12 11 8 5 6 8 9 3 1 3 2 3 3 3 4 5 5 3 2 2 4 6 8 7 6 7 10 12 12 13 15 15 16 18 19 19 18 14 12 11 8 5 3 2 0 2 6 7 7 6 7 8 7 6 7 5 4 3 5 7 7 9 10 9 8 7 7 9 8
1 2 1 2 4 6 7 7 8 8 9 10 11 10 10 11 12 12 13 13 10 10 8 7 6 3 2 2 3 3 3 4 4 4 3 1 1 2 4 6 8 8 8 9 10 11 12 12 13 14 15 17 18 19 17 13 11 13 10 8 5 4 4 4 4 6 6 6 6 7 7 7 8 8 7 6 4 5 8 8 9 9 9 9 8 8 7
3 3 2 2 3 4 5 6 7 8 9 9 10 12 10 10 11 12 13 12 12 10 9 7 6 5 2 2 2 3 3 3 4 5 3 2 3 3 5 7 7 8 8 8 9 11 11 11 13 14 15 15 16 17 16 13 12 12 12 11 9 6 4 4 6 6 5 6 7 7 8 9 8 8 7 8 8 8 9 10 9 9 9 10 9 7 7
3 4 3 2 4 6 6 6 7 9 9 10 9 9 9 8 9 10 10 11 12 12 10 9 8 4 5 3 3 3 4 4 3 1 2 4 4 5 6 6 6 7 7 6 8 10 11 12 12 13 14 15 14 14 15 15 12 12 12 11 9 9 9 8 7 2 4 4 4 5 7 9 10 9 8 7 7 8 6 7 7 7 8 7 5 6 7
2 1 3 2 1 3 6 7 7 7 7 7 7 8 9 9 10 10 10 10 11 12 11 10 9 4 2 3 3 3 3 3 5 5 5 5 5 5 6 6 6 7 7 6 7 9 9 11 12 12 13 14 14 14 15 16 12 11 11 11 9 9 11 10 10 7 5 4 4 6 6 7 10 11 9 8 7 6 8 3 2 5 7 7 6 6 8
1 3 3 3 2 2 3 4 6 6 7 8 9 8 8 7 9 9 11 10 10 10 10 10 10 9 9 8 8 8 9 8 7 7 5 5 4 6 6 7 7 8 8 7 8 9 10 11 13 12 12 13 14 14 14 15 13 11 12 11 8 9 11 10 10 9 7 6 5 4 6 8 8 7 8 9 10 10 10 10 8 8 9 9 7 7 6
2 3 3 3 2 3 3 3 4 5 6 6 7 8 9 9 10 10 11 10 9 10 11 11 10 9 10 9 9 9 9 8 8 8 7 6 4 4 6 7 8 9 10 9 9 10 12 11 18 22 12 12 13 13 16 16 13 11 10 10 8 10 12 12 12 9 8 7 8 7 6 7 8 9 9 9 10 10 9 10 9 9 9 9 9 8 8
3 4 3 2 2 3 3 2 3 4 5 6 6 7 9 9 8 8 8 9 11 11 11 11 11 11 8 7 7 8 8 8 8 7 7 6 5 6 7 8 9 9 10 10 12 12 12 12 20 21 12 10 11 13 17 25 11 9 8 9 10 11 12 11 12 11 10 9 9 9 9 7 8 8 7 8 9 9 9 10 10 9 10 10 9 9 10
4 3 2 2 2 2 2 2 3 3 4 5 6 6 7 7 7 7 8 9 10 11 10 10 10 8 9 9 9 9 9 9 9 8 8 8 7 6 8 9 9 8 10 9 10 11 10 15 22 14 9 9 10 11 13 20 17 9 8 10 10 10 11 11 10 10 11 10 11 12 11 10 9 8 8 8 8 8 8 10 11 11 11 11 11 11 10
4 3 3 2 2 2 2 2 2 2 4 5 6 6 7 8 7 7 7 7 8 9 9 9 8 9 11 11 10 9 9 9 9 9 9 8 7 7 8 9 9 9 8 8 9 9 11 14 11 10 9 9 9 9 11 16 17 10 10 10 11 10 10 10 10 10 11 11 11 12 12 10 9 9 10 10 11 12 12 13 12 11 12 11 11 11 10
4 3 3 2 2 2 2 2 1 3 3 3 4 5 6 7 6 6 6 7 8 8 9 9 9 8 9 9 8 8 8 8 7 8 8 8 7 6 5 8 10 9 10 14 10 9 15 21 13 8 8 8 8 6 8 14 14 10 9 9 9 10 10 10 10 11 11 10 11 13 11 10 8 9 10 10 11 11 11 12 12 12 12 12 11 11 11
4 3 3 2 2 2 2 2 2 2 2 3 3 4 5 6 6 5 6 6 5 7 8 8 8 8 8 7 7 7 7 7 6 8 8 7 8 7 7 7 9 8 9 9 10 11 15 14 12 10 9 9 8 10 7 13 11 9 10 10 10 10 10 11 10 10 10 11 10 9 9 9 10 12 11 11 11 10 11 11 11 10 10 10 10 10 11
3 5 3 3 2 1 2 1 0 2 2 2 3 4 5 6 6 6 6 5 5 5 6 7 11 9 7 7 8 8 9 9 7 7 9 9 9 7 8 8 9 8 14 13 12 12 10 11 11 10 10 9 9 14 13 10 9 9 10 11 10 10 9 10 10 11 9 9 10 10 9 10 11 12 11 10 11 11 11 11 11 11 11 11 11 10 10
3 5 3 3 3 2 4 2 2 2 2 2 3 4 4 4 5 5 5 5 5 5 7 7 7 9 8 7 7 8 8 9 9 8 6 8 9 9 9 8 8 10 17 11 11 8 9 9 10 10 17 14 11 16 14 9 9 9 9 10 10 11 11 11 10 9 9 10 10 10 10 11 11 11 11 11 10 11 11 13 12 12 11 11 10 10 10
5 5 3 3 4 3 1 2 3 2 2 2 3 3 3 4 5 5 5 5 4 5 6 6 7 7 8 8 8 7 7 8 8 8 6 6 8 9 9 8 7 12 19 10 10 10 9 9 10 17 23 23 22 19 11 8 9 10 9 9 9 10 10 10 11 10 11 10 9 9 10 9 10 11 10 10 9 10 10 11 11 11 11 10 10 10 10
7 6 4 2 2 3 2 3 1 1 1 2 2 2 3 3 4 4 4 4 5 6 6 6 6 7 7 7 7 6 6 7 7 7 7 8 8 8 8 10 10 9 13 16 10 10 8 10 16 23 20 23 22 20 11 10 9 9 9 9 9 9 9 10 10 10 10 10 10 9 8 8 8 10 11 10 10 9 10 11 11 10 10 10 10 10 10
9 7 3 4 2 0 2 2 1 1 0 1 1 2 2 2 3 3 4 4 4 4 6 7 7 8 7 7 6 6 6 7 8 8 7 7 7 6 7 10 9 11 17 17 10 10 9 20 23 20 22 22 20 12 10 10 9 9 9 9 10 10 10 10 10 10 9 10 10 9 9 8 10 10 10 9 7 10 12 14 12 11 11 11 10 10 10
4 4 4 5 3 2 6 5 2 1 2 1 2 1 1 2 3 3 4 5 4 3 6 7 7 7 7 7 7 7 7 6 7 8 8 8 9 11 13 16 15 17 14 10 10 11 12 14 18 22 21 19 17 10 10 10 10 9 10 9 9 9 9 9 9 9 9 9 11 11 12 11 10 10 9 8 9 11 11 12 11 11 11 11 11 11 11
3 2 5 4 4 2 2 1 2 2 2 1 1 1 2 2 3 3 4 6 6 4 5 6 6 6 7 7 8 8 6 5 7 9 8 8 8 8 9 9 13 17 15 14 15 17 24 23 23 22 22 19 11 8 8 9 10 10 10 9 9 9 8 8 9 10 10 9 10 10 9 9 9 9 9 9 9 9 10 12 11 11 9 8 10 11 11
2 3 3 3 2 3 3 1 2 1 1 2 1 1 2 3 3 4 4 5 5 5 4 6 6 6 5 7 8 6 6 7 7 6 6 8 8 8 8 11 17 17 13 11 11 10 19 22 21 21 20 16 10 10 9 8 8 8 8 9 9 10 10 9 9 8 8 10 10 10 9 10 10 9 10 10 10 10 10 10 10 9 9 10 10 10 10
3 4 4 5 5 2 2 2 2 2 2 0 3 6 3 3 4 3 3 4 5 5 4 4 4 4 5 4 4 5 5 6 6 6 6 7 8 8 9 10 10 16 16 11 11 11 14 20 19 20 15 10 10 11 10 10 9 9 8 9 8 7 9 11 12 12 10 10 10 11 11 10 9 11 10 9 10 11 10 10 10 13 18 12 9 9 10
4 4 4 4 2 2 2 2 1 1 2 3 3 2 2 5 4 3 2 3 2 3 4 4 4 3 3 3 3 3 4 4 5 6 4 5 7 10 12 9 11 12 12 12 10 10 9 9 10 12 12 11 10 10 10 10 9 10 11 9 10 10 9 10 9 10 10 9 8 9 9 9 9 10 9 9 10 10 10 10 9 9 9 9 9 9 9
2 4 5 4 3 4 2 0 0 0 2 2 3 3 4 3 5 4 4 5 3 3 3 2 4 4 3 3 3 2 2 3 2 1 4 4 5 5 8 11 8 9 9 9 9 9 9 10 12 15 15 11 9 9 12 14 10 9 10 11 10 10 11 10 9 9 9 10 10 10 11 10 9 10 10 9 9 9 9 9 9 8 8 7 7 8 9
Wind_Direction
285 283 289 298 297 288 288 290 295 303 316 314 311 313 319 332 292 289 320 321 318 302 337 352 10 15 35 24 21 20 30 35 36 40 41 37 35 28 31 39 36 26 20 190 184 182 182 181 182 184 187 192 195 194 191 188 184 183 180 181 186 188 188 191 194 193 192 193 195 195 195 195 196 195 195 194 192 191 193 198 199 195 191 189 188 191 192
298 298 301 299 297 296 286 280 285 299 300 296 292 294 301 299 282 282 294 292 294 308 114 298 323 5 18 25 25 25 34 34 32 31 37 34 32 34 36 36 39 41 37 33 31 31 23 14 339 195 191 198 196 191 191 187 188 183 177 183 184 187 189 190 190 189 188 190 192 193 195 196 197 195 194 193 191 191 193 196 199 197 192 190 190 191 191
286 302 307 306 294 293 289 290 287 286 290 284 285 291 297 287 279 290 301 315 308 37 280 155 42 12 21 33 31 27 24 29 33 31 30 27 27 30 32 30 33 30 20 20 27 36 35 37 42 61 97 47 10 325 228 192 191 184 178 181 185 187 189 185 185 185 187 189 190 193 195 196 196 196 195 193 191 191 192 193 196 198 192 192 193 193 193
301 292 293 290 293 289 290 287 279 269 271 279 275 276 334 306 304 325 336 333 350 343 342 60 53 42 28 32 31 27 18 22 30 29 22 22 22 23 22 28 29 24 13 8 7 10 30 96 55 12 11 83 96 82 328 296 211 185 181 181 185 187 184 181 183 184 187 188 190 193 194 196 195 197 196 195 194 190 190 190 193 195 195 194 193 193 195
284 286 288 298 304 310 299 296 284 276 251 252 281 284 272 270 286 283 295 298 298 83 343 50 52 59 38 35 29 21 19 20 26 26 21 14 16 18 17 22 22 17 7 356 352 354 351 20 64 346 320 187 161 173 189 258 283 216 187 184 185 185 182 181 183 183 185 189 191 192 194 194 194 196 197 197 197 192 191 190 189 193 196 190 193 193 194
284 294 299 304 306 278 265 272 302 330 325 323 304 284 260 256 255 305 14 26 325 3 13 52 57 58 59 46 34 31 25 19 20 21 16 13 9 7 12 16 16 11 14 357 341 331 332 353 358 230 218 222 196 186 177 203 259 243 200 185 185 186 182 182 182 183 185 188 192 193 191 192 193 196 198 200 199 194 191 188 191 194 196 193 190 193 194
283 295 289 284 260 263 285 280 296 337 337 353 344 339 314 266 327 13 51 81 350 352 347 29 73 85 75 61 33 26 29 27 26 18 12 10 5 1 359 1 2 354 354 357 354 351 348 342 337 340 275 217 204 207 188 199 231 240 205 188 184 186 186 183 181 183 186 188 190 191 192 191 193 197 199 200 199 196 191 190 191 193 195 196 191 192 194
339 305 270 269 252 267 303 303 318 332 346 23 19 345 32 27 2 342 52 58 23 348 1 360 16 110 95 64 54 26 26 33 28 18 12 3 1 357 355 352 350 352 351 352 349 340 333 333 331 327 321 320 307 213 184 211 216 218 205 192 186 185 187 185 185 184 185 187 189 190 191 192 194 196 198 198 199 197 194 193 194 193 197 197 194 192 193
221 231 274 278 303 300 292 303 322 344 339 8 23 327 325 19 10 6 26 53 48 15 7 350 339 329 100 52 32 21 23 27 33 23 14 360 355 352 349 351 346 353 347 341 335 330 329 326 319 312 316 314 309 313 296 248 219 214 199 199 189 189 189 186 186 185 186 186 188 190 191 194 196 196 195 197 199 196 197 193 190 193 195 196 196 194 192
168 251 279 307 297 270 279 272 293 302 334 319 309 301 278 33 3 16 21 25 32 27 12 5 342 329 35 33 9 11 14 19 24 23 14 1 354 352 348 347 349 346 340 334 334 332 329 328 324 320 321 317 312 302 291 290 275 231 209 206 199 189 192 189 187 186 185 186 188 190 192 197 197 197 195 195 198 195 198 195 193 194 193 196 196 198 197
68 263 254 255 257 260 297 316 340 347 357 358 333 309 282 11 0 10 22 28 25 19 10 20 9 30 51 32 13 10 9 12 19 15 8 359 354 349 349 347 346 339 336 334 335 336 335 331 329 326 322 317 308 299 288 279 276 259 226 214 206 196 195 190 187 187 186 186 188 190 194 198 197 197 196 195 195 195 201 200 197 190 192 195 197 198 201
219 240 245 265 264 301 15 343 350 335 334 336 339 326 291 351 346 353 13 21 21 14 14 16 40 47 38 358 355 352 17 17 15 12 3 356 352 348 345 346 341 334 332 334 337 337 332 326 325 320 320 316 310 302 294 281 271 262 246 227 212 200 184 187 188 188 188 188 189 191 194 195 195 198 197 197 196 197 199 201 198 191 190 194 196 198 198
228 239 262 268 267 310 351 331 342 350 333 353 336 261 331 332 325 341 355 6 25 12 21 12 26 16 358 354 323 337 29 11 14 10 9 356 346 343 345 343 339 339 337 333 330 327 324 324 322 319 317 313 304 303 301 294 277 267 255 241 220 193 182 187 189 190 189 189 190 192 191 191 192 194 196 199 198 198 199 200 200 196 192 193 196 198 197
231 208 233 236 255 113 303 342 343 349 336 327 294 316 312 305 318 332 331 345 22 23 18 7 354 331 346 12 3 25 18 359 3 10 360 350 348 348 341 339 345 342 335 330 325 325 326 323 321 317 313 304 297 294 293 287 280 268 263 239 212 200 184 187 188 189 190 190 190 189 188 186 190 196 197 197 199 201 201 201 201 201 193 190 194 196 197
215 216 241 245 249 279 326 340 336 37 20 232 229 289 290 301 302 322 330 326 355 21 346 347 343 324 335 12 352 7 38 353 357 360 359 357 349 346 343 342 344 342 336 332 329 325 325 323 319 311 308 299 293 290 284 279 278 276 264 246 209 202 193 186 186 187 189 185 186 189 188 188 190 194 192 195 198 198 201 203 203 202 198 191 191 192 195
262 243 240 229 172 310 335 341 320 320 311 254 257 241 297 296 298 299 305 304 317 11 19 341 332 333 312 354 348 336 27 357 350 350 352 351 348 344 341 336 337 340 337 331 327 326 324 323 318 310 300 294 289 285 280 277 277 276 269 246 215 203 196 190 186 186 185 185 186 188 187 185 190 191 193 196 196 197 199 201 202 203 202 195 191 191 194
290 270 287 300 305 312 322 344 329 323 334 331 280 301 284 296 296 263 266 293 318 329 355 342 315 319 317 320 311 332 1 2 2 349 341 345 341 336 338 338 333 334 336 330 327 326 328 323 318 310 302 291 287 281 276 275 271 268 260 242 214 204 199 193 187 185 183 184 186 188 188 186 189 192 194 192 197 199 197 200 202 203 203 197 195 193 193
300 286 261 265 290 358 351 333 326 319 312 335 343 320 304 300 299 296 287 290 292 281 271 283 266 271 303 320 327 343 335 358 356 341 330 330 330 332 339 341 341 337 335 333 331 328 327 327 320 319 316 310 297 287 285 282 274 265 250 232 213 205 200 193 188 183 183 186 186 188 188 190 192 192 191 193 199 198 198 201 202 202 202 200 198 196 195
337 284 29 345 351 347 334 323 313 324 354 347 329 316 311 307 306 305 304 302 302 299 285 240 244 244 266 297 310 312 323 333 342 342 333 324 329 337 338 334 331 332 339 337 331 327 325 324 322 321 318 310 305 299 291 285 277 261 238 220 210 205 199 193 188 185 183 186 187 189 190 190 192 191 193 195 198 199 199 201 202 203 201 200 202 199 196
268 282 308 322 344 324 311 332 348 335 329 323 320 316 305 295 294 289 290 296 290 288 293 311 310 311 301 266 256 312 309 308 322 335 334 328 325 328 329 332 334 325 336 339 330 325 322 320 321 320 318 313 308 304 298 294 282 251 221 213 210 205 198 191 189 187 187 186 185 189 191 190 191 193 195 197 199 201 200 199 199 200 199 200 202 199 199
283 277 287 357 329 311 301 331 322 318 314 311 307 305 303 297 293 296 296 289 287 285 288 305 306 307 308 309 334 322 311 304 319 331 333 325 317 322 333 336 337 333 336 339 332 323 318 322 327 324 320 316 310 312 315 313 303 253 220 212 211 206 199 193 192 190 188 186 189 188 189 192 196 195 195 198 204 208 207 202 203 199 198 202 200 201 199
297 324 330 339 328 317 318 317 319 314 307 303 298 294 290 285 276 280 283 286 285 290 285 268 267 279 295 309 330 323 311 300 313 333 329 318 321 332 328 327 329 330 334 337 337 324 322 330 328 322 318 316 315 316 316 314 312 288 232 209 209 206 199 196 193 191 191 188 187 187 188 191 196 199 204 207 206 205 204 206 206 207 206 204 200 196 201
291 308 304 298 286 288 290 301 305 302 301 296 290 281 279 281 275 273 274 276 276 276 284 284 278 279 289 296 314 311 305 304 312 323 320 317 341 335 328 332 332 334 332 335 339 332 333 332 323 317 317 321 322 322 319 314 313 309 264 216 208 206 199 199 195 191 190 186 184 187 189 192 194 192 182 75 35 22 326 218 201 210 205 212 213 209 202
252 262 281 292 287 291 300 302 300 299 301 310 312 306 287 274 275 280 280 277 283 287 287 290 285 279 280 279 272 284 303 313 315 318 307 303 340 318 326 328 331 334 332 338 340 331 328 324 322 325 327 325 325 321 320 315 312 305 296 248 220 210 203 202 195 189 187 185 183 187 193 192 194 185 174 171 245 24 34 344 237 199 202 205 204 203 208
244 257 283 289 285 285 288 291 298 301 308 321 323 318 312 292 274 267 269 274 266 267 274 275 282 279 282 299 303 295 293 305 299 287 315 337 320 321 322 327 336 338 330 326 328 324 321 322 325 327 325 324 325 323 319 313 308 304 304 292 254 243 355 2 353 247 198 190 189 191 192 193 194 180 179 189 191 192 23 40 47 79 193 209 211 207 204
242 268 276 280 280 285 288 297 301 314 319 330 329 330 323 302 274 259 260 266 269 269 273 279 289 291 283 270 248 261 287 290 297 311 327 319 310 315 324 332 334 331 326 319 324 326 325 324 323 321 323 324 329 326 317 311 306 303 316 335 46 49 98 126 124 100 1 347 337 335 305 232 203 186 191 191 188 172 147 130 82 56 53 55 44 218 236
235 258 294 303 283 301 311 324 319 318 319 325 329 330 327 322 291 267 264 259 267 269 264 263 261 279 284 278 267 253 258 279 292 314 311 299 304 304 311 320 335 328 322 319 324 329 326 323 319 323 326 329 331 327 315 309 308 306 313 355 91 142 175 164 185 190 169 167 169 174 182 295 307 282 219 186 173 170 179 181 185 183 181 119 30 28 104
225 233 249 306 312 310 313 312 311 318 321 323 332 332 337 338 333 305 274 268 258 258 258 250 252 263 273 270 265 273 288 288 302 307 306 310 310 311 328 332 327 320 318 318 323 325 326 321 322 325 330 332 332 324 312 312 312 305 295 314 161 166 169 148 54 339 294 223 187 182 171 167 164 267 302 287 224 182 184 182 178 165 134 84 53 41 69
204 220 221 236 268 290 297 306 316 326 330 333 329 336 350 349 345 349 355 341 322 310 282 260 237 236 251 278 255 263 268 282 293 295 300 306 323 355 341 334 326 316 315 320 321 321 332 327 329 331 333 335 328 320 314 323 326 327 308 313 16 102 145 149 158 156 152 165 154 107 89 110 132 158 178 226 256 217 188 181 177 169 147 129 133 97 61
167 195 240 274 293 314 322 337 333 331 335 336 342 342 350 344 351 352 345 348 348 322 285 284 264 231 206 260 281 269 283 288 281 283 288 323 352 353 343 338 323 319 316 328 334 330 336 332 331 330 335 333 326 318 324 337 347 338 335 358 46 12 291 152 153 150 155 165 163 149 145 146 136 128 135 159 226 240 214 198 176 161 154 169 168 158 159
335 154 199 298 318 321 327 329 329 335 337 336 345 350 354 352 350 349 351 347 344 347 332 300 271 247 243 260 267 291 300 286 286 291 293 299 333 7 355 358 341 335 335 333 336 335 331 335 331 328 333 333 327 325 333 339 0 346 337 333 349 37 83 141 126 143 152 152 151 156 153 154 148 145 138 146 164 226 232 218 193 168 168 170 173 170 157
335 341 4 338 328 320 325 332 335 339 345 346 350 356 359 357 356 353 348 352 339 341 348 334 313 291 265 255 288 293 280 282 298 296 291 6 11 18 15 359 345 337 331 331 337 336 332 336 334 326 328 335 329 328 334 341 8 358 345 334 337 350 22 101 138 128 142 143 146 147 150 146 147 147 148 155 155 174 215 219 211 173 170 172 178 157 138
335 336 338 356 344 340 338 345 342 340 346 354 354 348 356 355 354 351 351 348 340 347 349 346 338 320 339 333 350 332 307 290 280 301 35 20 15 14 12 359 347 335 333 334 339 334 334 334 329 324 331 332 327 327 341 348 10 4 347 335 339 354 19 24 8 86 105 112 115 123 139 146 147 147 146 145 147 157 183 227 212 167 160 154 133 124 136
352 344 342 74 5 344 329 335 341 344 343 346 350 353 1 2 358 351 352 352 347 353 345 339 341 344 3 4 8 342 357 15 19 10 13 22 15 11 13 351 346 339 334 336 343 341 340 336 326 326 331 330 330 338 350 354 0 5 349 337 345 16 25 16 14 16 26 60 99 120 120 136 144 149 150 147 136 130 128 161 246 127 114 102 102 100 124
53 46 37 31 16 9 356 338 341 347 351 349 352 356 357 0 6 359 0 359 357 351 339 342 356 20 34 32 32 32 30 23 15 359 2 16 19 19 10 354 354 345 344 354 352 345 343 334 325 332 334 337 339 346 349 0 1 358 352 336 344 31 36 31 20 12 20 26 26 48 86 105 115 110 118 127 130 133 132 131 146 131 115 113 114 112 104
13 54 40 13 8 7 23 353 349 350 350 350 353 356 357 359 0 356 354 354 349 356 360 356 3 20 35 30 32 30 29 20 9 5 5 9 5 29 18 5 3 357 352 346 355 349 345 335 338 349 351 345 345 347 353 1 3 350 341 330 350 31 41 39 22 13 11 28 42 36 35 59 86 100 109 109 111 114 120 125 130 123 117 115 116 107 101
40 71 47 26 12 14 24 8 352 352 347 354 355 357 359 1 3 351 348 353 360 3 0 1 12 16 19 22 24 31 31 19 9 1 354 352 6 26 21 10 11 6 360 355 353 347 340 334 347 354 354 349 348 353 360 359 357 344 332 340 7 30 36 40 32 17 16 23 35 39 35 40 47 58 74 89 105 113 123 120 110 102 99 101 95 91 85
95 71 64 59 30 24 30 0 1 8 353 358 359 357 2 1 358 354 352 2 5 1 0 7 14 9 11 14 18 27 27 18 11 5 2 3 10 24 25 17 8 6 1 358 348 344 333 345 351 351 349 357 356 359 1 353 353 350 355 4 17 29 34 35 36 33 20 23 36 45 43 35 36 51 57 70 79 83 82 86 89 93 89 84 84 83 85
102 98 83 63 35 48 32 356 12 12 13 7 353 357 5 3 2 356 2 2 0 3 5 5 5 18 20 16 15 14 15 13 12 9 9 4 3 22 36 24 13 5 349 352 355 344 346 355 355 354 352 355 0 2 2 0 358 358 9 14 13 24 33 38 37 36 32 21 28 43 45 43 49 60 63 61 72 77 77 82 84 83 82 83 81 80 78
110 106 83 60 31 34 49 34 11 22 15 9 352 7 356 360 358 353 358 6 6 360 8 6 12 22 19 14 9 13 7 9 13 15 10 3 4 7 33 27 18 1 5 8 2 352 1 4 359 0 357 349 1 5 15 15 8 7 10 16 13 20 27 35 40 44 42 31 34 43 46 43 41 50 65 68 72 75 77 79 78 81 84 84 83 85 85
110 110 110 99 56 38 51 34 9 63 13 1 7 10 359 2 356 358 4 2 0 7 12 13 19 18 16 9 4 11 16 13 15 27 17 14 15 14 23 24 7 4 13 18 12 9 9 6 4 5 8 3 1 25 22 26 15 7 14 17 17 21 25 31 34 35 36 46 42 38 43 46 47 48 52 59 65 67 69 72 75 75 78 85 87 86 84
107 106 104 100 84 25 47 67 16 55 12 11 13 11 0 1 9 5 0 355 15 18 20 17 26 26 17 12 8 16 21 18 16 35 37 31 22 10 23 22 5 5 19 22 15 13 7 4 5 7 15 19 12 29 36 38 27 16 20 22 19 21 23 27 31 33 32 36 47 48 41 47 51 51 44 53 60 65 67 68 68 67 67 69 74 77 84
107 114 113 119 112 64 53 16 321 63 68 36 19 14 2 2 6 8 5 2 12 24 28 24 20 19 18 12 16 20 19 13 15 9 32 41 34 25 22 17 4 14 24 27 25 17 16 10 17 14 27 30 30 32 34 33 40 31 27 29 29 26 25 26 27 29 30 36 39 42 41 46 48 50 51 47 47 59 67 69 68 65 63 64 68 69 70
91 98 73 80 111 109 108 329 334 59 85 41 18 21 4 6 1 11 6 2 17 42 36 29 28 24 19 20 27 28 22 16 17 6 11 29 36 29 22 27 18 21 25 22 21 24 22 24 28 34 34 36 39 35 25 23 39 44 35 35 36 37 34 32 29 31 35 31 30 37 41 39 55 57 44 48 49 53 60 67 72 71 71 67 65 66 68
92 89 99 98 92 121 130 99 88 4 39 67 40 35 19 3 349 3 12 4 12 42 49 49 39 30 23 24 24 22 19 18 16 14 17 26 34 31 19 32 30 30 29 29 21 18 17 26 31 37 40 39 40 41 35 25 25 42 46 40 40 39 37 38 38 34 32 33 32 31 34 40 44 62 66 54 51 52 57 65 66 67 70 71 70 68 62
107 116 128 125 115 131 132 116 41 324 338 133 141 55 22 2 0 10 9 5 349 32 61 61 54 41 31 26 21 14 17 27 25 24 30 20 25 23 27 41 38 40 37 34 27 25 19 30 32 36 43 44 41 36 37 38 35 35 42 48 49 47 46 42 40 40 39 41 42 41 40 41 49 51 58 67 68 73 66 65 66 63 66 67 67 70 72
94 121 114 77 31 74 106 127 181 142 102 64 36 47 70 37 29 20 6 4 357 33 69 63 58 56 49 37 30 21 15 22 38 27 25 24 25 29 31 33 33 36 36 36 35 31 30 30 31 32 37 43 48 47 40 39 40 40 41 41 44 50 52 51 49 48 48 47 47 48 51 48 44 47 49 54 58 67 76 73 69 67 67 68 68 69 70
68 90 115 133 156 144 103 113 150 116 99 56 98 77 66 80 61 38 18 7 4 3 70 79 68 59 51 45 39 36 25 19 43 33 18 22 20 23 25 31 34 32 31 29 31 34 33 32 33 33 33 33 34 42 49 49 50 46 42 43 44 43 43 45 48 51 49 48 50 51 49 47 48 53 55 56 56 53 65 76 81 78 68 69 73 72 72
121 103 89 104 108 115 141 148 102 116 210 197 165 85 87 85 77 57 41 14 9 6 31 77 85 80 64 56 52 45 43 42 50 51 31 32 30 29 28 30 31 31 30 30 26 26 32 33 34 35 34 34 33 32 33 40 47 55 55 52 49 53 52 50 45 40 50 57 57 55 54 56 55 51 53 53 55 54 54 60 62 67 78 80 80 76 75
59 62 83 71 67 23 6 48 43 18 330 162 169 188 177 105 78 69 70 63 38 16 16 39 49 81 88 78 67 63 53 49 49 50 44 43 41 39 35 33 33 34 34 31 27 24 24 30 32 34 32 29 31 34 33 33 35 41 44 49 55 60 61 62 62 58 53 55 58 60 58 59 61 65 62 60 62 62 62 62 64 68 70 69 70 77 80
183 162 123 117 117 64 56 88 105 29 345 324 316 13 85 110 100 82 69 70 92 69 55 36 30 28 78 104 107 84 69 56 56 56 58 54 53 46 43 40 39 40 36 33 26 24 21 23 28 32 31 32 31 35 36 33 32 42 46 48 49 52 52 54 60 64 63 63 62 59 58 58 58 58 57 60 64 66 63 63 61 60 58 62 66 70 74
96 90 103 82 63 120 161 199 76 347 278 300 359 23 30 55 115 99 76 68 45 41 81 68 47 18 8 45 78 74 84 76 68 44 65 77 70 70 53 45 40 39 37 32 28 27 26 27 32 35 34 31 30 33 38 39 36 38 38 42 43 45 49 50 52 57 62 66 68 71 69 67 64 64 62 58 60 62 63 65 67 65 66 64 64 64 65